Weather History for 76001 - September, 2013

Change the Weather History Date:

Monday, September 16, 2013

  Actual Average Record
Temperature  
Mean Temperature 70 °F -  
Max Temperature 78 °F 76 °F - ()
Min Temperature 62 °F 58 °F - ()
Cooling Degree Days 5    
Growing Degree Days 20 (Base 50)    
Moisture  
Dew Point 61 °F    
Average Humidity 74    
Maximum Humidity 94    
Minimum Humidity 51    
Precipitation  
Precipitation 0.00 in - - ()
Sea Level Pressure  
Sea Level Pressure 29.82 in    
Wind  
Wind Speed 4 mph ()    
Max Wind Speed 16 mph    
Max Gust Speed -    
Visibility 5.9 miles    
Events      
T = Trace of Precipitation, MM = Missing Value Source: Averaged Metar Reports

Daily Weather History Graph

Daily Weather History Graph

Search for Another Location

Airport or City:

Trip Planner

Search our weather history database for the weather conditions in past years. The results will help you decide how hot, cold, wet, or windy it might be!

Date:

Astronomy

Sep. 16, 2013 Rise Set
Actual Time 6:32 AM PDT 6:52 PM PDT
Civil Twilight 6:07 AM PDT 7:16 PM PDT
Nautical Twilight 5:39 AM PDT 7:45 PM PDT
Astronomical Twilight 5:09 AM PDT 8:14 PM PDT
Moon 4:58 PM PDT (9/16) 3:31 AM PDT (9/16)
Length of Visible Light 13h 08m
Length of Day
12h 19m
Waxing Gibbous, 91% of the Moon is Illuminated
Sep 16
Waxing Gibbous
Sep 19
Full
Sep 26
Last Quarter
Oct 4
New
Oct 11
First Quarter

Hourly Weather History & Observations

Time (PDT) Temp. Dew Point Humidity Pressure Visibility Wind Dir Wind Speed Gust Speed Precip Events Conditions
12:42 AM 66.2 °F 62.6 °F 88% 29.80 in 7.0 mi Calm Calm - N/A   Clear
1:48 AM 66.2 °F 62.6 °F 88% 29.81 in 7.0 mi Calm Calm - N/A   Clear
2:41 AM 66.2 °F 60.8 °F 83% 29.80 in 7.0 mi Calm Calm - N/A   Clear
3:44 AM 64.4 °F 59.0 °F 83% 29.79 in 7.0 mi Calm Calm - N/A   Clear
4:47 AM 62.6 °F 60.8 °F 94% 29.81 in 2.0 mi Calm Calm - N/A   Clear
5:43 AM 62.6 °F 59.0 °F 88% 29.80 in 6.0 mi Calm Calm - N/A   Clear
6:47 AM 62.6 °F 59.0 °F 88% 29.80 in 6.0 mi Calm Calm - N/A   Clear
8:41 AM 73.4 °F 60.8 °F 65% 29.83 in 5.0 mi West 2.3 mph - N/A   Clear
9:50 AM 75.2 °F 62.6 °F 65% 29.84 in 5.0 mi NW 6.9 mph - N/A   Clear
10:50 AM 77.0 °F 60.8 °F 57% 29.85 in 6.0 mi SW 9.2 mph - N/A   Clear
11:47 AM 77.0 °F 60.8 °F 57% 29.83 in 6.0 mi WNW 12.7 mph - N/A   Clear
12:51 PM 78.8 °F 60.8 °F 54% 29.83 in 6.0 mi WNW 10.4 mph - N/A   Clear
1:51 PM 78.8 °F 60.8 °F 54% 29.85 in 7.0 mi WNW 12.7 mph - N/A   Clear
2:41 PM 78.8 °F 60.8 °F 54% 29.80 in 7.0 mi WNW 10.4 mph - N/A   Clear
3:40 PM 78.8 °F 59.0 °F 51% 29.79 in 7.0 mi WNW 12.7 mph - N/A   Clear
4:41 PM 77.0 °F 62.6 °F 61% 29.79 in 7.0 mi WSW 16.1 mph - N/A   Clear
5:40 PM 71.6 °F 62.6 °F 73% 29.79 in 7.0 mi West 12.7 mph - N/A   Clear
6:40 PM 68.0 °F 60.8 °F 78% 29.80 in 7.0 mi West 9.2 mph - N/A   Clear
7:41 PM 66.2 °F 60.8 °F 83% 29.81 in 6.0 mi West 6.9 mph - N/A   Mostly Cloudy
8:42 PM 64.4 °F 60.8 °F 88% 29.83 in 6.0 mi West 4.6 mph - N/A   Clear
9:40 PM 66.2 °F 60.8 °F 83% 29.83 in 5.0 mi Calm Calm - N/A   Clear
10:40 PM 64.4 °F 59.0 °F 83% 29.83 in 5.0 mi West 3.5 mph - N/A   Clear
11:40 PM 64.4 °F 60.8 °F 88% 29.84 in 2.0 mi NW 5.8 mph - N/A   Overcast